NORTHEAST SUFFOLK  -  Rip Current Statement Rip Current Statement        NORTHERN NASSAU  -  Rip Current Statement Rip Current Statement        NORTHERN QUEENS  -  Rip Current Statement Rip Current Statement     Air Quality Alert Air Quality Alert        NORTHWEST SUFFOLK  -  Rip Current Statement Rip Current Statement        SOUTHEAST SUFFOLK  -  Rip Current Statement Rip Current Statement        SOUTHERN NASSAU  -  Rip Current Statement Rip Current Statement        SOUTHERN QUEENS  -  Rip Current Statement Rip Current Statement     Air Quality Alert Air Quality Alert        SOUTHWEST SUFFOLK  -  Rip Current Statement Rip Current Statement      

Active alerts

Northern Queens
  Details for Northern Queens Rip Current Statement  +1 additional alert
Southern Queens
  Details for Southern Queens Rip Current Statement  +1 additional alert
Northern Nassau
  Details for Northern Nassau Rip Current Statement
Southern Nassau
  Details for Southern Nassau Rip Current Statement
Northwest Suffolk
  Details for Northwest Suffolk Rip Current Statement
Southwest Suffolk
  Details for Southwest Suffolk Rip Current Statement
Northeast Suffolk
  Details for Northeast Suffolk Rip Current Statement
Southeast Suffolk
  Details for Southeast Suffolk Rip Current Statement


WXM80 ListenWXM80 Stop

You find our weather info also at:

UK Metoffice

WeatherCloud

Weather Underground

Northeastern Weather Network

AWEKAS

Citizen Weather Observer Program (CWOP)

HAMweather, WeatherForYou, PWS Weather


Weather Underground History page Text

Daily Summary for September 29, 2016 Units:  English    Metric   Both
« Previous Day
Next Day »
Daily Weekly Monthly Yearly Custom
  High: Low: Average:
Temperature: 65.5 °F 59.9 °F 61.8 °F
Dew Point: 58.5 °F 55.0 °F 56.7 °F
Humidity: 94 % 74 % 84 %
Wind Speed: 14.5 mph 3.0 mph 7.7 mph
Wind Gust: 20.7 mph - -
Wind:- - East
Pressure: 30.37 in 30.22 in -
Precipitation: 0.00 in    
Historical Graphs
 
 
Tabular Data for September 29, 2016
Time Temperature Dew Point Pressure Wind Wind Speed Wind Gust Humidity Rainfall Rate (Hourly)
00:01 59.9 °F 57.3 °F 30.24 in ENE 8.0 mph 11.5 mph 91 % 0.00 in
00:05 60.0 °F 57.4 °F 30.24 in ENE 9.0 mph 16.0 mph 91 % 0.00 in
00:11 60.0 °F 57.4 °F 30.24 in ENE 8.0 mph 12.0 mph 91 % 0.00 in
00:16 60.0 °F 57.4 °F 30.24 in NNE 9.3 mph 15.0 mph 91 % 0.00 in
00:20 60.0 °F 57.4 °F 30.24 in ENE 7.0 mph 13.0 mph 91 % 0.00 in
00:26 60.0 °F 57.4 °F 30.23 in ENE 8.0 mph 15.0 mph 91 % 0.00 in
00:31 60.0 °F 57.4 °F 30.23 in ENE 9.0 mph 14.0 mph 91 % 0.00 in
00:36 60.0 °F 57.4 °F 30.22 in ENE 10.0 mph 15.0 mph 91 % 0.00 in
00:41 60.0 °F 57.4 °F 30.22 in ENE 10.0 mph 16.0 mph 91 % 0.00 in
00:46 60.0 °F 57.4 °F 30.22 in ENE 10.0 mph 17.0 mph 91 % 0.00 in
00:51 60.0 °F 57.4 °F 30.23 in ENE 8.0 mph 16.0 mph 91 % 0.00 in
00:56 60.0 °F 57.7 °F 30.23 in ENE 8.0 mph 20.0 mph 92 % 0.00 in
01:01 60.0 °F 57.4 °F 30.23 in ENE 8.2 mph 15.0 mph 91 % 0.00 in
01:05 60.0 °F 57.4 °F 30.23 in ENE 9.0 mph 17.0 mph 91 % 0.00 in
01:10 60.0 °F 57.7 °F 30.23 in ENE 9.0 mph 14.0 mph 92 % 0.00 in
01:16 60.0 °F 57.7 °F 30.24 in East 9.0 mph 16.0 mph 92 % 0.00 in
01:20 60.0 °F 57.7 °F 30.24 in ENE 7.0 mph 15.0 mph 92 % 0.00 in
01:25 60.0 °F 57.7 °F 30.24 in ENE 9.0 mph 15.0 mph 92 % 0.00 in
01:30 60.1 °F 58.1 °F 30.24 in ENE 9.0 mph 13.0 mph 93 % 0.00 in
01:35 60.1 °F 58.1 °F 30.24 in East 9.7 mph 16.1 mph 93 % 0.00 in
01:40 60.1 °F 58.1 °F 30.24 in ENE 9.0 mph 13.0 mph 93 % 0.00 in
01:45 60.1 °F 58.1 °F 30.24 in ENE 7.0 mph 16.0 mph 93 % 0.00 in
01:50 60.1 °F 58.4 °F 30.24 in East 8.0 mph 13.8 mph 94 % 0.00 in
01:55 60.1 °F 58.4 °F 30.24 in ENE 9.0 mph 16.0 mph 94 % 0.00 in
02:01 60.1 °F 58.4 °F 30.24 in East 9.9 mph 15.0 mph 94 % 0.00 in
02:11 60.1 °F 58.4 °F 30.24 in ENE 9.7 mph 16.1 mph 94 % 0.00 in
02:16 60.2 °F 58.5 °F 30.24 in NE 11.0 mph 17.3 mph 94 % 0.00 in
02:26 60.2 °F 58.5 °F 30.24 in ENE 8.2 mph 12.7 mph 94 % 0.00 in
02:31 60.3 °F 58.3 °F 30.24 in East 9.5 mph 15.0 mph 93 % 0.00 in
02:36 60.3 °F 58.3 °F 30.24 in ENE 8.0 mph 17.3 mph 93 % 0.00 in
02:41 60.4 °F 58.4 °F 30.23 in ENE 9.3 mph 13.8 mph 93 % 0.00 in
02:46 60.4 °F 58.4 °F 30.23 in ENE 10.4 mph 16.0 mph 93 % 0.00 in
02:52 60.4 °F 58.1 °F 30.23 in NE 9.0 mph 15.0 mph 92 % 0.00 in
02:57 60.5 °F 58.2 °F 30.23 in ENE 8.9 mph 18.0 mph 92 % 0.00 in
03:02 60.5 °F 57.9 °F 30.23 in NE 6.6 mph 15.0 mph 91 % 0.00 in
03:07 60.6 °F 58.0 °F 30.23 in East 8.6 mph 11.5 mph 91 % 0.00 in
03:12 60.7 °F 57.7 °F 30.23 in East 9.4 mph 13.0 mph 90 % 0.00 in
03:17 60.8 °F 57.8 °F 30.24 in East 9.4 mph 13.8 mph 90 % 0.00 in
03:22 61.0 °F 58.0 °F 30.24 in East 8.5 mph 13.8 mph 90 % 0.00 in
03:27 61.0 °F 57.7 °F 30.24 in ENE 9.7 mph 12.0 mph 89 % 0.00 in
03:32 61.1 °F 57.8 °F 30.24 in ENE 6.8 mph 16.1 mph 89 % 0.00 in
03:37 61.1 °F 57.8 °F 30.24 in ENE 9.6 mph 13.8 mph 89 % 0.00 in
03:43 61.2 °F 57.6 °F 30.24 in ENE 8.3 mph 11.5 mph 88 % 0.00 in
03:48 61.2 °F 57.6 °F 30.25 in ENE 10.2 mph 15.0 mph 88 % 0.00 in
03:53 61.3 °F 57.7 °F 30.24 in ENE 8.6 mph 12.7 mph 88 % 0.00 in
03:58 61.3 °F 57.7 °F 30.24 in East 10.1 mph 18.4 mph 88 % 0.00 in
04:03 61.3 °F 57.7 °F 30.24 in East 11.2 mph 16.1 mph 88 % 0.00 in
04:13 61.4 °F 57.5 °F 30.25 in ENE 9.0 mph 11.0 mph 87 % 0.00 in
04:18 61.3 °F 57.1 °F 30.25 in NE 9.8 mph 14.0 mph 86 % 0.00 in
04:23 61.3 °F 57.4 °F 30.25 in East 9.3 mph 16.1 mph 87 % 0.00 in
04:28 61.3 °F 57.1 °F 30.25 in East 7.5 mph 15.0 mph 86 % 0.00 in
04:34 61.3 °F 57.1 °F 30.25 in NNW 9.4 mph 18.4 mph 86 % 0.00 in
04:39 61.2 °F 57.0 °F 30.26 in ENE 10.8 mph 16.1 mph 86 % 0.00 in
04:44 61.2 °F 57.0 °F 30.27 in ENE 9.3 mph 13.0 mph 86 % 0.00 in
04:49 61.2 °F 57.0 °F 30.27 in ENE 9.2 mph 11.5 mph 86 % 0.00 in
04:54 61.2 °F 57.3 °F 30.27 in East 9.1 mph 13.8 mph 87 % 0.00 in
04:59 61.2 °F 57.3 °F 30.27 in East 10.2 mph 11.5 mph 87 % 0.00 in
05:04 61.2 °F 57.3 °F 30.27 in ENE 10.5 mph 15.0 mph 87 % 0.00 in
05:09 61.2 °F 57.3 °F 30.27 in NE 6.2 mph 10.4 mph 87 % 0.00 in
05:14 61.3 °F 57.4 °F 30.27 in NE 10.5 mph 13.8 mph 87 % 0.00 in
05:19 61.3 °F 57.1 °F 30.27 in ENE 8.9 mph 18.4 mph 86 % 0.00 in
05:25 61.3 °F 57.1 °F 30.27 in ENE 9.5 mph 11.5 mph 86 % 0.00 in
05:30 61.3 °F 57.1 °F 30.27 in ENE 12.3 mph 18.4 mph 86 % 0.00 in
05:35 61.4 °F 57.2 °F 30.27 in ENE 7.9 mph 11.5 mph 86 % 0.00 in
05:40 61.4 °F 57.2 °F 30.27 in NE 9.7 mph 15.0 mph 86 % 0.00 in
05:45 61.3 °F 57.1 °F 30.28 in ENE 10.4 mph 17.3 mph 86 % 0.00 in
05:50 61.3 °F 57.1 °F 30.27 in ENE 11.7 mph 20.0 mph 86 % 0.00 in
05:55 61.3 °F 57.1 °F 30.27 in NE 8.1 mph 10.4 mph 86 % 0.00 in
06:05 61.3 °F 57.1 °F 30.27 in NNE 9.8 mph 12.7 mph 86 % 0.00 in
06:10 61.3 °F 57.4 °F 30.27 in East 6.1 mph 10.4 mph 87 % 0.00 in
06:16 61.3 °F 57.1 °F 30.28 in ENE 8.0 mph 16.0 mph 86 % 0.00 in
06:21 61.3 °F 57.1 °F 30.28 in ENE 9.7 mph 17.3 mph 86 % 0.00 in
06:26 61.3 °F 57.1 °F 30.28 in ENE 9.0 mph 18.0 mph 86 % 0.00 in
06:31 61.3 °F 57.1 °F 30.29 in ENE 9.0 mph 20.0 mph 86 % 0.00 in
06:36 61.3 °F 57.1 °F 30.29 in ENE 10.5 mph 15.0 mph 86 % 0.00 in
06:41 61.3 °F 57.1 °F 30.30 in ENE 9.0 mph 17.0 mph 86 % 0.00 in
06:46 61.2 °F 57.0 °F 30.30 in ENE 10.0 mph 20.0 mph 86 % 0.00 in
06:51 61.3 °F 57.1 °F 30.30 in East 9.2 mph 17.3 mph 86 % 0.00 in
06:56 61.3 °F 57.0 °F 30.30 in ENE 7.0 mph 16.0 mph 86 % 0.00 in
07:01 61.3 °F 57.1 °F 30.29 in ENE 9.5 mph 15.0 mph 86 % 0.00 in
07:06 61.3 °F 57.4 °F 30.30 in East 10.7 mph 13.8 mph 87 % 0.00 in
07:16 61.3 °F 57.1 °F 30.30 in ENE 7.2 mph 14.0 mph 86 % 0.00 in
07:21 61.2 °F 57.0 °F 30.30 in ENE 7.6 mph 13.8 mph 86 % 0.00 in
07:26 61.2 °F 57.0 °F 30.30 in ENE 9.2 mph 15.0 mph 86 % 0.00 in
07:31 61.2 °F 57.0 °F 30.30 in East 6.1 mph 11.0 mph 86 % 0.00 in
07:36 61.1 °F 56.6 °F 30.31 in East 12.3 mph 17.3 mph 85 % 0.00 in
07:41 61.1 °F 56.6 °F 30.31 in East 11.8 mph 16.1 mph 85 % 0.00 in
07:46 61.1 °F 57.2 °F 30.31 in NE 8.2 mph 12.7 mph 87 % 0.00 in
07:52 61.1 °F 56.9 °F 30.31 in East 10.8 mph 13.0 mph 86 % 0.00 in
07:57 61.1 °F 56.9 °F 30.31 in ENE 11.0 mph 16.1 mph 86 % 0.00 in
08:02 61.0 °F 56.5 °F 30.31 in ENE 9.4 mph 15.0 mph 85 % 0.00 in
08:07 61.0 °F 56.8 °F 30.31 in ENE 12.5 mph 16.1 mph 86 % 0.00 in
08:12 61.0 °F 56.8 °F 30.31 in ENE 12.5 mph 19.6 mph 86 % 0.00 in
08:17 60.9 °F 56.7 °F 30.31 in ENE 8.0 mph 11.5 mph 86 % 0.00 in
08:22 60.9 °F 56.7 °F 30.31 in East 6.8 mph 11.5 mph 86 % 0.00 in
08:27 60.9 °F 56.7 °F 30.31 in NE 10.0 mph 14.0 mph 86 % 0.00 in
08:32 60.9 °F 56.7 °F 30.31 in East 7.9 mph 11.0 mph 86 % 0.00 in
08:37 60.8 °F 56.6 °F 30.32 in East 9.7 mph 16.1 mph 86 % 0.00 in
08:43 60.8 °F 56.3 °F 30.32 in ENE 6.5 mph 9.2 mph 85 % 0.00 in
08:48 60.8 °F 56.6 °F 30.33 in East 6.3 mph 15.0 mph 86 % 0.00 in
08:53 60.8 °F 56.6 °F 30.33 in East 5.6 mph 6.9 mph 86 % 0.00 in
08:58 60.8 °F 56.6 °F 30.33 in ENE 9.3 mph 12.7 mph 86 % 0.00 in
09:03 60.8 °F 56.6 °F 30.33 in ENE 9.6 mph 18.4 mph 86 % 0.00 in
09:08 60.8 °F 56.6 °F 30.32 in ENE 7.7 mph 11.5 mph 86 % 0.00 in
09:13 60.9 °F 56.7 °F 30.32 in East 9.9 mph 15.0 mph 86 % 0.00 in
09:18 60.8 °F 56.3 °F 30.32 in East 10.8 mph 19.6 mph 85 % 0.00 in
09:23 60.9 °F 56.7 °F 30.31 in East 8.0 mph 11.5 mph 86 % 0.00 in
09:28 60.9 °F 56.7 °F 30.32 in East 6.7 mph 19.6 mph 86 % 0.00 in
09:34 61.0 °F 56.8 °F 30.32 in East 9.2 mph 10.4 mph 86 % 0.00 in
09:39 60.9 °F 56.4 °F 30.32 in NE 10.3 mph 15.0 mph 85 % 0.00 in
09:44 60.9 °F 56.4 °F 30.33 in ENE 6.7 mph 11.5 mph 85 % 0.00 in
09:49 60.9 °F 56.4 °F 30.33 in ENE 6.0 mph 13.8 mph 85 % 0.00 in
09:55 60.9 °F 56.0 °F 30.33 in East 7.8 mph 10.0 mph 84 % 0.00 in
10:00 60.9 °F 56.0 °F 30.33 in East 9.0 mph 12.7 mph 84 % 0.00 in
10:05 61.0 °F 56.1 °F 30.33 in ENE 8.9 mph 13.8 mph 84 % 0.00 in
10:10 61.0 °F 56.1 °F 30.34 in ENE 6.3 mph 11.5 mph 84 % 0.00 in
10:15 61.0 °F 56.1 °F 30.34 in NE 6.6 mph 11.0 mph 84 % 0.00 in
10:20 61.1 °F 56.2 °F 30.34 in East 7.6 mph 11.0 mph 84 % 0.00 in
10:25 61.2 °F 56.0 °F 30.35 in East 5.7 mph 11.5 mph 83 % 0.00 in
10:30 61.2 °F 56.3 °F 30.35 in ENE 5.3 mph 6.9 mph 84 % 0.00 in
10:35 61.2 °F 56.0 °F 30.35 in ENE 9.1 mph 10.0 mph 83 % 0.00 in
10:40 61.2 °F 56.0 °F 30.35 in East 6.1 mph 12.7 mph 83 % 0.00 in
10:46 61.2 °F 56.0 °F 30.35 in ENE 9.0 mph 14.0 mph 83 % 0.00 in
10:51 61.2 °F 56.0 °F 30.34 in ENE 7.0 mph 15.0 mph 83 % 0.00 in
10:56 61.3 °F 56.1 °F 30.34 in ENE 10.0 mph 17.0 mph 83 % 0.00 in
11:01 61.4 °F 56.2 °F 30.35 in ENE 6.1 mph 9.2 mph 83 % 0.00 in
11:06 61.6 °F 56.7 °F 30.35 in ENE 9.0 mph 12.7 mph 84 % 0.00 in
11:11 61.6 °F 56.4 °F 30.35 in ENE 7.5 mph 12.7 mph 83 % 0.00 in
11:16 61.7 °F 56.5 °F 30.34 in East 8.2 mph 11.5 mph 83 % 0.00 in
11:21 61.8 °F 56.6 °F 30.35 in NE 7.9 mph 10.0 mph 83 % 0.00 in
11:26 62.1 °F 57.2 °F 30.36 in East 6.4 mph 8.1 mph 84 % 0.00 in
11:31 62.3 °F 57.4 °F 30.35 in East 6.7 mph 9.0 mph 84 % 0.00 in
11:36 62.5 °F 56.9 °F 30.35 in East 6.2 mph 8.1 mph 82 % 0.00 in
11:41 62.6 °F 57.4 °F 30.36 in ENE 6.5 mph 8.1 mph 83 % 0.00 in
11:46 62.7 °F 57.1 °F 30.36 in East 6.9 mph 8.1 mph 82 % 0.00 in
11:52 62.7 °F 56.8 °F 30.36 in ENE 5.9 mph 12.7 mph 81 % 0.00 in
11:57 62.7 °F 56.4 °F 30.36 in East 6.9 mph 8.1 mph 80 % 0.00 in
12:02 62.7 °F 56.4 °F 30.36 in East 7.8 mph 11.5 mph 80 % 0.00 in
12:07 62.7 °F 56.4 °F 30.36 in East 6.9 mph 8.1 mph 80 % 0.00 in
12:12 62.8 °F 56.2 °F 30.36 in ENE 7.0 mph 9.2 mph 79 % 0.00 in
12:17 62.7 °F 56.1 °F 30.37 in East 5.9 mph 8.0 mph 79 % 0.00 in
12:22 62.7 °F 56.1 °F 30.36 in East 6.4 mph 8.0 mph 79 % 0.00 in
12:27 62.8 °F 56.2 °F 30.36 in East 6.5 mph 8.1 mph 79 % 0.00 in
12:32 62.8 °F 56.5 °F 30.36 in ENE 5.2 mph 6.9 mph 80 % 0.00 in
12:38 62.9 °F 56.6 °F 30.36 in East 5.7 mph 8.1 mph 80 % 0.00 in
12:43 62.8 °F 56.2 °F 30.36 in East 6.1 mph 8.1 mph 79 % 0.00 in
12:48 62.8 °F 56.2 °F 30.36 in ESE 6.7 mph 8.1 mph 79 % 0.00 in
12:53 62.7 °F 56.4 °F 30.36 in ENE 4.9 mph 6.9 mph 80 % 0.00 in
12:58 62.6 °F 56.3 °F 30.36 in East 6.1 mph 8.0 mph 80 % 0.00 in
13:03 62.6 °F 56.3 °F 30.36 in ESE 5.2 mph 6.9 mph 80 % 0.00 in
13:08 62.7 °F 56.8 °F 30.36 in East 5.7 mph 6.9 mph 81 % 0.00 in
13:13 63.3 °F 57.4 °F 30.36 in East 5.6 mph 8.1 mph 81 % 0.00 in
13:18 64.1 °F 57.5 °F 30.36 in ESE 6.1 mph 8.1 mph 79 % 0.00 in
13:23 64.3 °F 57.3 °F 30.35 in East 5.7 mph 6.9 mph 78 % 0.00 in
13:29 64.3 °F 57.3 °F 30.35 in East 5.8 mph 7.0 mph 78 % 0.00 in
13:34 64.3 °F 57.6 °F 30.35 in East 5.7 mph 6.9 mph 79 % 0.00 in
13:39 64.3 °F 57.6 °F 30.35 in East 5.3 mph 8.1 mph 79 % 0.00 in
13:44 64.0 °F 57.0 °F 30.35 in East 6.1 mph 8.1 mph 78 % 0.00 in
13:54 63.8 °F 57.2 °F 30.35 in East 6.4 mph 8.1 mph 79 % 0.00 in
13:59 63.7 °F 57.4 °F 30.34 in East 5.8 mph 7.0 mph 80 % 0.00 in
14:04 63.6 °F 57.0 °F 30.34 in East 6.0 mph 8.1 mph 79 % 0.00 in
14:09 63.5 °F 56.9 °F 30.34 in East 5.4 mph 8.1 mph 79 % 0.00 in
14:14 63.6 °F 57.0 °F 30.34 in East 6.2 mph 7.0 mph 79 % 0.00 in
14:20 63.8 °F 56.8 °F 30.34 in East 4.2 mph 7.0 mph 78 % 0.00 in
14:25 63.9 °F 57.3 °F 30.34 in East 5.3 mph 7.0 mph 79 % 0.00 in
14:30 64.3 °F 56.9 °F 30.34 in East 5.1 mph 6.9 mph 77 % 0.00 in
14:35 64.7 °F 57.3 °F 30.34 in ENE 6.0 mph 8.1 mph 77 % 0.00 in
14:40 65.0 °F 57.6 °F 30.34 in East 5.0 mph 6.9 mph 77 % 0.00 in
14:45 65.2 °F 57.1 °F 30.33 in East 5.3 mph 6.9 mph 75 % 0.00 in
14:50 65.4 °F 57.3 °F 30.33 in ENE 5.8 mph 6.9 mph 75 % 0.00 in
14:55 65.4 °F 57.3 °F 30.34 in East 5.4 mph 8.0 mph 75 % 0.00 in
15:00 65.3 °F 57.2 °F 30.34 in East 5.4 mph 6.0 mph 75 % 0.00 in
15:05 65.5 °F 57.4 °F 30.34 in East 6.1 mph 8.1 mph 75 % 0.00 in
15:11 65.5 °F 57.0 °F 30.34 in East 5.0 mph 8.0 mph 74 % 0.00 in
15:16 65.5 °F 57.4 °F 30.34 in East 5.0 mph 7.0 mph 75 % 0.00 in
15:21 65.4 °F 57.3 °F 30.34 in East 3.0 mph 7.0 mph 75 % 0.00 in
15:26 65.3 °F 57.2 °F 30.34 in East 5.0 mph 7.0 mph 75 % 0.00 in
15:31 65.0 °F 56.5 °F 30.34 in East 6.0 mph 8.0 mph 74 % 0.00 in
15:36 64.7 °F 56.6 °F 30.34 in East 5.0 mph 8.0 mph 75 % 0.00 in
15:41 64.6 °F 56.5 °F 30.34 in East 6.0 mph 8.0 mph 75 % 0.00 in
15:46 64.7 °F 56.9 °F 30.33 in East 5.0 mph 7.0 mph 76 % 0.00 in
15:51 64.7 °F 57.0 °F 30.34 in East 5.0 mph 7.0 mph 76 % 0.00 in
15:56 64.7 °F 57.0 °F 30.33 in East 4.4 mph 6.9 mph 76 % 0.00 in
16:01 64.7 °F 57.0 °F 30.34 in East 5.4 mph 7.0 mph 76 % 0.00 in
16:06 64.6 °F 56.9 °F 30.33 in East 4.9 mph 8.1 mph 76 % 0.00 in
16:11 64.5 °F 56.8 °F 30.34 in East 5.4 mph 6.9 mph 76 % 0.00 in
16:16 64.5 °F 56.8 °F 30.33 in East 6.1 mph 8.1 mph 76 % 0.00 in
16:21 64.4 °F 56.7 °F 30.33 in ESE 5.6 mph 6.9 mph 76 % 0.00 in
16:26 64.4 °F 57.0 °F 30.32 in East 6.3 mph 8.1 mph 77 % 0.00 in
16:31 64.3 °F 56.9 °F 30.32 in East 4.8 mph 6.9 mph 77 % 0.00 in
16:36 64.2 °F 56.8 °F 30.32 in ENE 4.0 mph 5.8 mph 77 % 0.00 in
16:41 64.1 °F 57.1 °F 30.33 in East 4.6 mph 6.0 mph 78 % 0.00 in
16:47 63.9 °F 56.5 °F 30.33 in East 5.5 mph 9.0 mph 77 % 0.00 in
16:52 63.8 °F 56.4 °F 30.33 in East 4.2 mph 5.8 mph 77 % 0.00 in
16:57 63.7 °F 56.7 °F 30.33 in ENE 4.6 mph 9.2 mph 78 % 0.00 in
17:02 63.6 °F 56.6 °F 30.34 in East 4.0 mph 6.0 mph 78 % 0.00 in
17:07 63.6 °F 56.6 °F 30.34 in East 5.2 mph 8.1 mph 78 % 0.00 in
17:12 63.5 °F 56.9 °F 30.33 in ESE 4.0 mph 4.6 mph 79 % 0.00 in
17:17 63.4 °F 56.8 °F 30.33 in East 5.2 mph 6.9 mph 79 % 0.00 in
17:22 63.3 °F 56.7 °F 30.33 in East 5.1 mph 6.9 mph 79 % 0.00 in
17:27 63.2 °F 56.6 °F 30.33 in ENE 5.5 mph 7.0 mph 79 % 0.00 in
17:32 63.1 °F 56.5 °F 30.33 in East 4.7 mph 6.9 mph 79 % 0.00 in
17:38 63.0 °F 56.4 °F 30.33 in ESE 3.9 mph 5.8 mph 79 % 0.00 in
17:43 63.0 °F 56.7 °F 30.33 in East 4.9 mph 6.9 mph 80 % 0.00 in
17:48 62.9 °F 56.6 °F 30.33 in East 3.9 mph 6.0 mph 80 % 0.00 in
17:53 62.8 °F 56.9 °F 30.33 in East 3.3 mph 5.8 mph 81 % 0.00 in
17:58 62.7 °F 56.4 °F 30.33 in ESE 4.7 mph 6.9 mph 80 % 0.00 in
18:03 62.7 °F 56.4 °F 30.33 in East 6.9 mph 9.2 mph 80 % 0.00 in
18:08 62.7 °F 56.4 °F 30.33 in East 7.4 mph 9.2 mph 80 % 0.00 in
18:13 62.8 °F 56.5 °F 30.33 in ENE 5.2 mph 7.0 mph 80 % 0.00 in
18:18 62.8 °F 56.2 °F 30.33 in East 7.2 mph 9.0 mph 79 % 0.00 in
18:23 62.8 °F 56.2 °F 30.33 in ENE 7.2 mph 11.0 mph 79 % 0.00 in
18:29 62.7 °F 56.4 °F 30.33 in East 7.1 mph 9.0 mph 80 % 0.00 in
18:34 62.7 °F 56.1 °F 30.33 in East 6.8 mph 9.2 mph 79 % 0.00 in
18:39 62.6 °F 56.0 °F 30.33 in East 6.9 mph 10.4 mph 79 % 0.00 in
18:44 62.5 °F 55.5 °F 30.33 in East 5.8 mph 9.2 mph 78 % 0.00 in
18:49 62.5 °F 55.9 °F 30.33 in East 6.5 mph 8.1 mph 79 % 0.00 in
18:54 62.6 °F 56.0 °F 30.33 in East 6.4 mph 8.1 mph 79 % 0.00 in
18:59 62.6 °F 56.0 °F 30.33 in ENE 5.4 mph 8.1 mph 79 % 0.00 in
19:04 62.6 °F 56.3 °F 30.33 in ENE 4.9 mph 8.1 mph 80 % 0.00 in
19:14 62.6 °F 56.3 °F 30.33 in East 6.7 mph 8.1 mph 80 % 0.00 in
19:20 62.4 °F 55.8 °F 30.33 in East 5.6 mph 8.1 mph 79 % 0.00 in
19:25 62.3 °F 55.4 °F 30.34 in East 7.4 mph 8.1 mph 78 % 0.00 in
19:30 62.1 °F 55.2 °F 30.34 in East 7.1 mph 9.2 mph 78 % 0.00 in
19:35 62.1 °F 55.9 °F 30.34 in East 5.4 mph 8.1 mph 80 % 0.00 in
19:40 62.0 °F 55.8 °F 30.34 in East 5.9 mph 9.2 mph 80 % 0.00 in
19:45 61.9 °F 55.3 °F 30.34 in East 6.3 mph 8.1 mph 79 % 0.00 in
19:50 61.9 °F 55.3 °F 30.34 in East 6.7 mph 8.1 mph 79 % 0.00 in
19:55 61.9 °F 55.7 °F 30.34 in East 7.6 mph 10.4 mph 80 % 0.00 in
20:01 61.8 °F 55.6 °F 30.34 in East 6.3 mph 9.0 mph 80 % 0.00 in
20:06 61.7 °F 55.5 °F 30.35 in ENE 7.0 mph 9.2 mph 80 % 0.00 in
20:11 61.6 °F 55.4 °F 30.35 in East 7.5 mph 13.0 mph 80 % 0.00 in
20:16 61.6 °F 55.4 °F 30.35 in ENE 8.7 mph 13.0 mph 80 % 0.00 in
20:21 61.5 °F 55.3 °F 30.35 in ENE 6.7 mph 9.2 mph 80 % 0.00 in
20:26 61.4 °F 55.5 °F 30.35 in ENE 7.6 mph 9.2 mph 81 % 0.00 in
20:31 61.4 °F 55.2 °F 30.35 in East 6.5 mph 8.1 mph 80 % 0.00 in
20:36 61.2 °F 55.0 °F 30.36 in East 10.2 mph 20.0 mph 80 % 0.00 in
20:41 61.2 °F 55.3 °F 30.36 in East 9.1 mph 15.0 mph 81 % 0.00 in
20:46 61.1 °F 55.2 °F 30.36 in East 7.4 mph 9.2 mph 81 % 0.00 in
20:52 61.0 °F 55.1 °F 30.36 in East 6.9 mph 11.5 mph 81 % 0.00 in
20:57 61.0 °F 55.5 °F 30.36 in East 7.0 mph 10.4 mph 82 % 0.00 in
21:02 61.0 °F 55.8 °F 30.36 in East 7.5 mph 10.4 mph 83 % 0.00 in
21:07 61.0 °F 55.5 °F 30.36 in East 6.3 mph 9.2 mph 82 % 0.00 in
21:12 60.9 °F 55.4 °F 30.36 in ENE 7.9 mph 10.4 mph 82 % 0.00 in
21:17 60.9 °F 55.4 °F 30.36 in ENE 7.9 mph 10.4 mph 82 % 0.00 in
21:22 60.9 °F 55.7 °F 30.36 in East 8.5 mph 15.0 mph 83 % 0.00 in
21:27 60.9 °F 55.4 °F 30.36 in ENE 7.8 mph 13.8 mph 82 % 0.00 in
21:32 60.8 °F 55.3 °F 30.36 in East 9.9 mph 15.0 mph 82 % 0.00 in
21:37 60.8 °F 55.6 °F 30.36 in East 8.4 mph 12.7 mph 83 % 0.00 in
21:43 60.8 °F 55.6 °F 30.36 in East 10.2 mph 11.5 mph 83 % 0.00 in
21:48 60.8 °F 55.3 °F 30.36 in East 7.9 mph 17.3 mph 82 % 0.00 in
21:53 60.7 °F 55.5 °F 30.36 in East 8.4 mph 10.4 mph 83 % 0.00 in
21:58 60.7 °F 55.5 °F 30.36 in ENE 7.5 mph 15.0 mph 83 % 0.00 in
22:03 60.7 °F 55.5 °F 30.36 in East 9.1 mph 16.1 mph 83 % 0.00 in
22:08 60.7 °F 55.5 °F 30.36 in ENE 9.5 mph 17.0 mph 83 % 0.00 in
22:13 60.7 °F 55.5 °F 30.36 in East 8.9 mph 12.7 mph 83 % 0.00 in
22:18 60.6 °F 55.4 °F 30.36 in East 7.9 mph 11.5 mph 83 % 0.00 in
22:23 60.7 °F 55.8 °F 30.36 in ENE 11.1 mph 17.3 mph 84 % 0.00 in
22:28 60.7 °F 55.8 °F 30.36 in ENE 10.0 mph 13.8 mph 84 % 0.00 in
22:34 60.6 °F 55.4 °F 30.36 in East 8.8 mph 13.8 mph 83 % 0.00 in
22:39 60.7 °F 55.8 °F 30.36 in NE 7.9 mph 12.7 mph 84 % 0.00 in
22:44 60.6 °F 55.4 °F 30.36 in ENE 11.6 mph 17.3 mph 83 % 0.00 in
22:49 60.7 °F 55.8 °F 30.36 in ENE 9.2 mph 12.7 mph 84 % 0.00 in
22:54 60.6 °F 55.4 °F 30.36 in ENE 9.4 mph 16.1 mph 83 % 0.00 in
22:59 60.6 °F 55.7 °F 30.36 in ENE 11.3 mph 18.4 mph 84 % 0.00 in
23:04 60.6 °F 55.7 °F 30.36 in East 10.3 mph 19.6 mph 84 % 0.00 in
23:09 60.6 °F 55.7 °F 30.36 in East 11.9 mph 18.4 mph 84 % 0.00 in
23:14 60.6 °F 55.7 °F 30.36 in ENE 11.2 mph 16.0 mph 84 % 0.00 in
23:19 60.5 °F 55.6 °F 30.35 in East 12.5 mph 15.0 mph 84 % 0.00 in
23:25 60.5 °F 55.6 °F 30.35 in ENE 8.1 mph 18.4 mph 84 % 0.00 in
23:35 60.4 °F 55.5 °F 30.35 in ENE 13.5 mph 18.4 mph 84 % 0.00 in
23:40 60.4 °F 55.9 °F 30.35 in ENE 12.6 mph 17.3 mph 85 % 0.00 in
23:50 60.4 °F 55.5 °F 30.34 in East 14.5 mph 20.7 mph 84 % 0.00 in
23:55 60.3 °F 55.8 °F 30.34 in ENE 12.8 mph 17.3 mph 85 % 0.00 in
Crab Meadow Weather
Compliments of Weather Underground - 3 mb

Script developed by  Jim McMurry - jmcmurry@mwt.net Adapted for the template by  Wim van der Kuil - Leuven-Template.eu

Astronomy: One year on Mercury is only 88 days.